SCOUT A R/B, 2120

Orbit data source: Space-Track

SCOUT A R/B, 2120 is space debris in LEO originally from a launch on Sat, 26 Mar 1966 UTC launched from the Air Force Western Test Range (AFWTR). Debris objects in space refer to the collection of defunct objects orbiting the Earth. Examples of debris include non-operational satellites, rocket bodies, and fragments generated from explosions, collisions, or faulty payload assembly.

Loading next visibility...
Identifier
2120, 1966-024B
Orbit
LEO
Country
Flag of USUS
Related business
Manufacturer
ABL
Mission
Spacecraft
Bus & Motor
ALTAIR, Unknown motor
Mass
33 kg wet, 33 kg dry
Launch date (UTC)
1966-03-26 (59 years ago)
Launch vehicle
Unknown
Launch site
Air Force Western Test Range (AFWTR)
Object type
Payload
Rocket body
Debris
Shape & HBR
Cyl, 0.8 m
Radar Cross Section
0.687 m², Medium (>0.1 m² and < 1m²)

Expand to show TLE details & history
Last TLE update: 9 hours ago

TLE from 9 hours ago
0 SCOUT A R/B
1 02120U 66024B   25260.82068796  .00000101  00000-0  92852-4 0  9996
2 02120  89.8227 177.0321 0150598 314.7844  44.1149 13.72574008974553
Epoch: 2025-09-17T19:41Z
TLE epoch observation values (Epoch: 2025-09-17T19:41:47.439Z)
Latitude
-0.00011°
Longitude
-115.40671°
Altitude
914.47 km
Speed
7.434 km/s
True Right ascension
11h 48m 07s
True Declination
0° 00' 00"
Sunlit
Object was in daylight at epoch
Visualization orbit readout
Latitude
Unknown
Longitude
Unknown
Altitude
Unknown
Speed
Unknown
Apparent Right ascension
Unknown
Apparent Declination
Unknown
Sunlit
N/A
Visualization observer readout
Local Sidereal Time
21:57:09
Azimuth
Unknown
Elevation
Unknown
Doppler factor
Unknown
Orbital elements
Apogee altitude
1,098.283 km
Perigee altitude
876.438 km
Semi-major axis
7,365.497 km
Eccentricity
0.01506
Inclination
89.8227°
RAAN
177.0321°
Arg. of periapsis
314.7844°
True anomaly
45.33253°
Mean anomaly
44.1149°
Eccentric anomaly
44.72207°
Mean motion
3.43352 °/min
Orbital period
104.85 mins
BSTAR
0.000092852
Loading maneuver chart data...
Computing Atmospheric mass density...
Loading historical data...
Loading historical data...
Loading historical data...
Loading historical data...
Loading historical data...
Loading historical data...
Loading historical data...

Documentation

Showing up to 5 results
|